This is the latest recevied weather packets stored in our database for station/object KK6MIG-13. If no packets are shown the sender has not sent any weather packets the latest 10 day(s).
| Time | Temp. | Humidity | Pressure | Rain* | Wind** | Luminosity | Snow |
|---|---|---|---|---|---|---|---|
| 1787792012 | 18.33° C | 32% | 1012.5 hPa | 0 mm | - | 338 W/m² | - |
| 1787791947 | 18.33° C | 35% | 1012.5 hPa | 0 mm | - | 339 W/m² | - |
| 1787791886 | 18.33° C | 33% | 1012.5 hPa | 0 mm | - | 343 W/m² | - |
| 1787791826 | 18.33° C | 29% | 1012.4 hPa | 0 mm | - | 346 W/m² | - |
| 1787791766 | 18.33° C | 29% | 1012.5 hPa | 0 mm | - | 352 W/m² | - |
| 1787791706 | 18.33° C | 29% | 1012.4 hPa | 0 mm | - | 355 W/m² | - |
| 1787791640 | 18.33° C | 31% | 1012.4 hPa | 0 mm | - | 359 W/m² | - |
| 1787791580 | 18.33° C | 29% | 1012.5 hPa | 0 mm | - | 360 W/m² | - |
| 1787791520 | 18.33° C | 30% | 1012.5 hPa | 0 mm | - | 364 W/m² | - |
| 1787791460 | 18.33° C | 30% | 1012.5 hPa | 0 mm | - | 369 W/m² | - |
| 1787791400 | 18.33° C | 32% | 1012.5 hPa | 0 mm | - | 373 W/m² | - |
| 1787791335 | 18.33° C | 31% | 1012.5 hPa | 0 mm | - | 376 W/m² | - |
| 1787791275 | 18.33° C | 29% | 1012.5 hPa | 0 mm | - | 378 W/m² | - |
| 1787791215 | 18.33° C | 30% | 1012.5 hPa | 0 mm | - | 381 W/m² | - |
| 1787791154 | 18.33° C | 29% | 1012.5 hPa | 0 mm | - | 387 W/m² | - |
| 1787791094 | 18.33° C | 30% | 1012.5 hPa | 0 mm | - | 390 W/m² | - |
| 1787791031 | 17.78° C | 30% | 1012.6 hPa | 0 mm | - | 392 W/m² | - |
| 1787790971 | 17.78° C | 31% | 1012.6 hPa | 0 mm | - | 396 W/m² | - |
| 1787790910 | 17.78° C | 31% | 1012.6 hPa | 0 mm | - | 401 W/m² | - |
| 1787790851 | 18.33° C | 34% | 1012.6 hPa | 0 mm | - | 403 W/m² | - |
| 1787790791 | 18.33° C | 33% | 1012.6 hPa | 0 mm | - | 408 W/m² | - |
| 1787790730 | 18.33° C | 33% | 1012.5 hPa | 0 mm | - | 411 W/m² | - |
| 1787790671 | 18.33° C | 35% | 1012.5 hPa | 0 mm | - | 415 W/m² | - |
| 1787790610 | 18.33° C | 34% | 1012.6 hPa | 0 mm | - | 418 W/m² | - |
| 1787790551 | 18.33° C | 34% | 1012.5 hPa | 0 mm | - | 422 W/m² | - |
* Rain latest hour (hover to see other rain measurements)
** Current wind speed in m/s (hover to see current wind gust speed)